Weather in Luzhny

Russia / Tula Oblast     53°20′24″N   37°02′08″E
temp.,
°C
wind,
m/s
gust,
m/s
humid.,
%
clouds,
%
prec.,
mm/h
press.,
hPa
HPBL,
m
13 may, thu
thu1300:00+6e410955 0.0 1017198
03:00+8e51193100 0.0 1017318
06:00+8ese5129572 0.0 1016366
09:00+12se71180100 0.0 1016835
12:00+11se6985100 2.3 1016796
15:00+15s696414 2.5 10141670
18:00+14s4777100 0.3 1014567
21:00+11se3491100 0.3 101549
14 may, fri
fri1400:00+9se359489 0.0 101675
03:00+9se3494100 0.0 101665
06:00+10ese3794100 0.0 1015151
09:00+16se5983100 0.1 1015449
12:00+19se7107458 0.4 1013964
15:00+21sse81272100 1.3 10111326
18:00+19sse71480100 1.5 1010625
21:00+16sse51493100 1.5 1010384
15 may, sat
sat1500:00+15sse41095100 0.9 1009234
03:00+14se479782 1.2 1009135
06:00+14s3795100 0.0 1009173
09:00+17sw5881100 0.0 1010490
12:00+19sw676329 0.0 10111197
15:00+20ssw57596 0.1 10111661
18:00+18ssw58750 0.4 1011805
21:00+14s34916 0.5 101265
16 may, sun
sun1600:00+13s37922 0.0 1013133
03:00+11ssw369526 0.0 1014121
06:00+11ssw2694100 0.0 1015196
09:00+16wsw34735 0.0 1015487
12:00+19sw33610 0.0 1015980
15:00+21sw23553 0.0 10151270
18:00+21sse1260100 0.0 10141212
21:00+16ne3374100 0.0 101419
17 may, mon
mon1700:00+14ene498299 0.0 1014136
03:00+14ene5128889 0.0 1013234
06:00+14e5129070 0.0 1012251
09:00+20ese71174100 0.0 1012457
12:00+24ese7958100 0.0 1011762
15:00+24ese7959100 0.0 10101044
18:00+22ese613693 0.0 1009618
21:00+19ese7177593 0.0 1009464